Location: Vancouver
(49.2500°N, 123.1330°W)
Time: 14:52:00
(UTC-07:00)

S-56A Canister/Altair - Visible Passes

Search period start: 31 May 2016 00:00
Search period end: 10 June 2016 00:00
Orbit: 641 x 2494 km, 38.9° (Epoch: 26 May)

Date Brightness Start Highest point End Pass type
(mag) Time Alt. Az. Time Alt. Az. Time Alt. Az.
02 Jun 10.4 04:07:14 10° SSW 04:15:59 23° SSE 04:22:49 10° ESE visible
03 Jun 10.5 03:34:31 10° SSW 03:43:22 22° SSE 03:50:25 10° ESE visible
04 Jun 10.6 03:03:20 13° S 03:10:43 21° SSE 03:17:55 10° ESE visible
05 Jun 10.7 02:32:04 15° S 02:38:02 20° SE 02:45:18 10° ESE visible
06 Jun 10.8 02:00:43 16° SSE 02:05:19 19° SE 02:12:33 10° ESE visible
06 Jun 10.1 03:58:06 10° SW 04:09:36 36° SSE 04:18:08 10° E visible
07 Jun 10.9 01:29:15 16° SSE 01:32:37 17° SE 01:39:36 10° ESE visible
07 Jun 10.1 03:26:38 14° SSW 03:36:51 35° SSE 03:45:49 10° E visible
08 Jun 10.9 00:57:41 15° SSE 00:59:53 16° SE 01:06:26 10° ESE visible
08 Jun 10.2 02:55:03 17° SSW 03:04:03 34° SSE 03:13:26 10° E visible
09 Jun 11.0 00:25:58 14° SE 00:27:10 14° SE 00:32:56 10° ESE visible
09 Jun 10.3 02:23:19 20° SSW 02:31:14 33° SSE 02:40:57 10° E visible
09 Jun 9.8 04:23:17 10° WSW 04:35:56 47° S 04:45:03 10° ESE visible
09 Jun 11.1 23:54:05 12° SE 23:54:28 12° SE 23:58:52 10° ESE visible
